TimeEST,TemperatureF,Dew PointF,Humidity,Sea Level PressureIn,VisibilityMPH,Wind Direction,Wind SpeedMPH,Gust SpeedMPH,PrecipitationIn,Events,Conditions,WindDirDegrees,DateUTC
12:56 AM,12.0,1.0,61,30.39,10.0,NW,4.6,-,N/A,,Clear,320,2013-11-25 05:56:00
1:56 AM,12.9,1.9,62,30.40,10.0,NW,3.5,-,N/A,,Clear,320,2013-11-25 06:56:00
2:56 AM,12.0,1.9,64,30.41,10.0,NW,5.8,-,N/A,,Clear,310,2013-11-25 07:56:00
3:56 AM,8.1,3.0,80,30.41,10.0,SE,3.5,-,N/A,,Clear,130,2013-11-25 08:56:00
4:56 AM,8.1,3.0,80,30.42,10.0,ESE,3.5,-,N/A,,Clear,120,2013-11-25 09:56:00
5:56 AM,10.0,5.0,80,30.40,10.0,East,3.5,-,N/A,,Clear,90,2013-11-25 10:56:00
6:56 AM,12.9,6.1,74,30.40,10.0,Calm,Calm,-,N/A,,Mostly Cloudy,0,2013-11-25 11:56:00
7:56 AM,17.1,10.0,74,30.38,10.0,Calm,Calm,-,N/A,,Partly Cloudy,0,2013-11-25 12:56:00
8:33 AM,19.4,12.2,74,30.33,10.0,SSE,3.5,-,N/A,,Mostly Cloudy,150,2013-11-25 13:33:00
8:56 AM,21.9,15.1,75,30.35,10.0,SSE,6.9,-,N/A,,Overcast,150,2013-11-25 13:56:00
9:03 AM,23.0,15.8,74,30.32,10.0,South,6.9,-,N/A,,Overcast,170,2013-11-25 14:03:00
9:24 AM,23.0,15.8,74,30.32,1.8,South,10.4,17.3,0.00,Snow,Light Snow,180,2013-11-25 14:24:00
9:35 AM,23.0,15.8,74,30.32,1.2,South,11.5,16.1,0.00,Snow,Light Snow,170,2013-11-25 14:35:00
9:56 AM,23.0,16.0,74,30.34,3.0,South,10.4,-,0.00,Snow,Light Snow,170,2013-11-25 14:56:00
10:23 AM,23.0,15.8,74,30.29,2.0,South,10.4,18.4,0.00,Snow,Light Snow,170,2013-11-25 15:23:00
10:31 AM,23.0,17.6,80,30.28,1.5,South,12.7,18.4,0.00,Snow,Light Snow,190,2013-11-25 15:31:00
10:48 AM,24.8,17.6,74,30.27,2.5,South,11.5,20.7,0.00,Snow,Light Snow,190,2013-11-25 15:48:00
10:56 AM,25.0,17.1,72,30.30,5.0,South,13.8,21.9,0.00,Snow,Light Snow,180,2013-11-25 15:56:00
11:53 AM,28.4,17.6,64,30.24,10.0,SSW,13.8,19.6,0.00,,Overcast,200,2013-11-25 16:53:00
11:56 AM,28.0,18.0,66,30.27,10.0,South,9.2,19.6,0.00,,Overcast,190,2013-11-25 16:56:00
12:23 PM,28.4,19.4,69,30.23,10.0,South,13.8,20.7,N/A,,Overcast,190,2013-11-25 17:23:00
12:56 PM,30.0,19.9,66,30.24,10.0,South,12.7,19.6,N/A,,Overcast,190,2013-11-25 17:56:00
1:24 PM,30.2,19.4,64,30.20,10.0,SSW,13.8,23.0,N/A,,Overcast,200,2013-11-25 18:24:00
1:34 PM,30.2,19.4,64,30.20,10.0,SSW,12.7,19.6,N/A,,Overcast,210,2013-11-25 18:34:00
1:56 PM,30.9,19.9,64,30.21,10.0,South,11.5,-,N/A,,Overcast,190,2013-11-25 18:56:00
2:56 PM,33.1,18.0,54,30.17,10.0,South,13.8,20.7,N/A,,Clear,190,2013-11-25 19:56:00
3:56 PM,33.1,14.0,46,30.16,10.0,SSW,8.1,-,N/A,,Mostly Cloudy,200,2013-11-25 20:56:00
4:56 PM,33.1,15.1,48,30.17,10.0,South,12.7,18.4,N/A,,Overcast,190,2013-11-25 21:56:00
5:56 PM,32.0,16.0,52,30.14,10.0,South,8.1,18.4,N/A,,Partly Cloudy,180,2013-11-25 22:56:00
6:56 PM,33.1,15.1,48,30.12,10.0,South,10.4,17.3,N/A,,Scattered Clouds,190,2013-11-25 23:56:00
7:56 PM,34.0,14.0,44,30.12,10.0,SSW,12.7,23.0,N/A,,Overcast,200,2013-11-26 00:56:00
8:56 PM,34.0,12.9,42,30.11,10.0,South,11.5,23.0,N/A,,Overcast,190,2013-11-26 01:56:00
9:56 PM,34.0,12.9,42,30.11,10.0,South,12.7,19.6,N/A,,Overcast,190,2013-11-26 02:56:00
10:56 PM,34.0,12.9,42,30.10,10.0,SSW,11.5,21.9,N/A,,Overcast,200,2013-11-26 03:56:00
11:56 PM,36.0,19.9,52,30.12,10.0,SSW,15.0,26.5,N/A,,Overcast,210,2013-11-26 04:56:00